QPF
0.00 0.00 0.00 0.00 0.00 0.00 0.00 0.00 0.00 0.00 0.00 0.00 0.00 0.00 0.00 0.00 0.00 0.00 0.00 0.00 0.00 0.00 0.00 0.00 0.00 0.00 0.00 0.00 0.00 0.00 0.00 0.00 0.00 0.00 0.00 0.00 0.00 0.00 0.00 0.01 0.02 0.01 0.03 0.05
0.00 0.00 0.00 0.00 0.00 0.00 0.00 0.00 0.00 0.00 0.00 0.00 0.00 0.00 0.00 0.00 0.00 0.00 0.00 0.00 0.00 0.00 0.00 0.00 0.00 0.00 0.00 0.00 0.00 0.00 0.00 0.00 0.00 0.00 0.00 0.00 0.00 0.00 0.00 0.00 0.00 0.01 0.01 0.02
0.00 0.00 0.00 0.00 0.00 0.00 0.00 0.00 0.00 0.00 0.00 0.00 0.00 0.00 0.00 0.00 0.00 0.00 0.00 0.00 0.00 0.00 0.00 0.00 0.00 0.00 0.00 0.00 0.00 0.00 0.00 0.00 0.00 0.00 0.00 0.00 0.00 0.00 0.00 0.00 0.00 0.00 0.00 0.01
0.00 0.00 0.00 0.00 0.00 0.00 0.00 0.00 0.00 0.00 0.00 0.00 0.00 0.00 0.00 0.00 0.00 0.00 0.00 0.00 0.00 0.00 0.00 0.00 0.00 0.00 0.00 0.00 0.00 0.00 0.00 0.00 0.00 0.00 0.00 0.00 0.00 0.00 0.00 0.00 0.00 0.00 0.00 0.00
0.00 0.00 0.00 0.00 0.00 0.00 0.00 0.00 0.00 0.00 0.00 0.00 0.00 0.00 0.00 0.00 0.00 0.00 0.00 0.00 0.00 0.00 0.00 0.00 0.00 0.00 0.00 0.00 0.00 0.00 0.00 0.00 0.00 0.00 0.00 0.00 0.00 0.00 0.00 0.00 0.00 0.00 0.00 0.00
0.00 0.00 0.00 0.00 0.00 0.00 0.00 0.00 0.00 0.00 0.00 0.00 0.00 0.00 0.00 0.00 0.00 0.00 0.00 0.00 0.00 0.00 0.00 0.00 0.00 0.00 0.00 0.00 0.00 0.00 0.00 0.00 0.00 0.00 0.00 0.00 0.00 0.00 0.00 0.00 0.00 0.00 0.00 0.00
0.00 0.00 0.00 0.00 0.00 0.00 0.00 0.00 0.00 0.00 0.00 0.00 0.00 0.00 0.00 0.00 0.00 0.00 0.00 0.00 0.00 0.00 0.00 0.00 0.00 0.00 0.00 0.00 0.00 0.00 0.00 0.00 0.00 0.00 0.00 0.00 0.00 0.00 0.00 0.00 0.00 0.00 0.00 0.00
0.00 0.00 0.00 0.00 0.00 0.00 0.00 0.00 0.00 0.00 0.00 0.00 0.00 0.00 0.00 0.00 0.00 0.00 0.00 0.00 0.00 0.00 0.00 0.00 0.00 0.00 0.00 0.00 0.00 0.00 0.00 0.00 0.00 0.00 0.00 0.00 0.00 0.00 0.00 0.00 0.00 0.00 0.00 0.00
0.00 0.00 0.00 0.00 0.00 0.00 0.00 0.00 0.00 0.00 0.01 0.02 0.00 0.00 0.00 0.00 0.00 0.00 0.00 0.00 0.00 0.00 0.00 0.00 0.00 0.00 0.00 0.00 0.00 0.00 0.00 0.00 0.00 0.00 0.00 0.00 0.00 0.00 0.00 0.00 0.00 0.00 0.00 0.00
0.00 0.00 0.00 0.00 0.00 0.00 0.00 0.00 0.00 0.01 0.04 0.03 0.00 0.00 0.00 0.00 0.00 0.00 0.00 0.00 0.00 0.00 0.00 0.00 0.00 0.00 0.00 0.00 0.00 0.00 0.00 0.00 0.00 0.00 0.00 0.00 0.00 0.00 0.00 0.00 0.00 0.00 0.00 0.00
0.00 0.00 0.00 0.00 0.00 0.00 0.00 0.00 0.00 0.00 0.00 0.00 0.00 0.00 0.00 0.00 0.00 0.00 0.00 0.00 0.00 0.00 0.00 0.00 0.00 0.00 0.00 0.00 0.00 0.00 0.00 0.00 0.00 0.00 0.00 0.00 0.00 0.00 0.00 0.00 0.00 0.00 0.00 0.00
0.00 0.00 0.00 0.00 0.00 0.00 0.00 0.00 0.00 0.00 0.00 0.00 0.00 0.00 0.00 0.00 0.00 0.00 0.00 0.00 0.00 0.00 0.00 0.00 0.00 0.00 0.00 0.00 0.00 0.00 0.00 0.00 0.00 0.00 0.00 0.00 0.00 0.00 0.00 0.00 0.00 0.00 0.00 0.00
0.00 0.00 0.00 0.00 0.00 0.00 0.00 0.00 0.00 0.00 0.00 0.00 0.00 0.00 0.00 0.00 0.00 0.00 0.00 0.00 0.00 0.00 0.00 0.00 0.00 0.00 0.00 0.00 0.00 0.00 0.00 0.00 0.00 0.00 0.00 0.00 0.00 0.00 0.00 0.00 0.00 0.00 0.00 0.00
0.00 0.00 0.00 0.00 0.00 0.00 0.00 0.00 0.00 0.00 0.00 0.00 0.00 0.00 0.00 0.00 0.00 0.00 0.00 0.00 0.00 0.00 0.00 0.00 0.00 0.00 0.00 0.00 0.00 0.00 0.00 0.00 0.00 0.00 0.00 0.00 0.00 0.00 0.00 0.00 0.00 0.00 0.00 0.00
0.01 0.02 0.00 0.00 0.00 0.00 0.00 0.00 0.00 0.00 0.00 0.00 0.00 0.00 0.00 0.00 0.00 0.00 0.00 0.00 0.00 0.00 0.00 0.00 0.00 0.00 0.00 0.00 0.00 0.00 0.00 0.00 0.00 0.00 0.00 0.00 0.00 0.00 0.00 0.00 0.00 0.00 0.00 0.00
0.04 0.06 0.00 0.00 0.00 0.00 0.00 0.00 0.00 0.00 0.00 0.00 0.00 0.00 0.00 0.00 0.00 0.00 0.00 0.00 0.00 0.00 0.00 0.00 0.00 0.00 0.00 0.00 0.00 0.00 0.00 0.00 0.00 0.00 0.00 0.00 0.00 0.00 0.00 0.00 0.00 0.00 0.00 0.00
0.05 0.08 0.06 0.05 0.02 0.01 0.08 0.02 0.00 0.00 0.00 0.00 0.01 0.00 0.00 0.01 0.01 0.00 0.00 0.00 0.00 0.00 0.00 0.00 0.00 0.00 0.00 0.00 0.00 0.00 0.00 0.00 0.00 0.00 0.00 0.00 0.00 0.00 0.00 0.00 0.00 0.00 0.00 0.00
0.07 0.10 0.18 0.19 0.09 0.10 0.09 0.01 0.00 0.00 0.00 0.00 0.00 0.00 0.01 0.01 0.00 0.00 0.00 0.00 0.00 0.00 0.00 0.00 0.00 0.00 0.00 0.00 0.00 0.00 0.00 0.00 0.00 0.00 0.00 0.00 0.00 0.00 0.00 0.00 0.00 0.00 0.00 0.00
0.23 0.19 0.19 0.20 0.12 0.03 0.00 0.00 0.00 0.00 0.00 0.00 0.00 0.00 0.00 0.01 0.00 0.00 0.00 0.00 0.00 0.00 0.00 0.00 0.00 0.00 0.00 0.00 0.00 0.00 0.00 0.00 0.00 0.00 0.00 0.00 0.00 0.00 0.00 0.00 0.00 0.00 0.00 0.01
0.22 0.32 0.31 0.32 0.17 0.05 0.00 0.00 0.00 0.00 0.00 0.00 0.00 0.00 0.00 0.00 0.00 0.00 0.00 0.00 0.00 0.00 0.00 0.00 0.00 0.00 0.00 0.00 0.00 0.00 0.00 0.00 0.00 0.00 0.00 0.00 0.01 0.00 0.00 0.00 0.00 0.00 0.02 0.04
0.08 0.16 0.22 0.22 0.12 0.03 0.00 0.00 0.00 0.00 0.00 0.00 0.00 0.00 0.00 0.00 0.00 0.00 0.00 0.00 0.00 0.00 0.00 0.00 0.00 0.00 0.00 0.00 0.00 0.00 0.00 0.00 0.00 0.01 0.00 0.00 0.00 0.00 0.00 0.01 0.01 0.01 0.05 0.07
0.01 0.03 0.07 0.10 0.10 0.03 0.00 0.00 0.00 0.00 0.00 0.00 0.00 0.00 0.00 0.00 0.00 0.00 0.00 0.00 0.00 0.00 0.00 0.00 0.00 0.00 0.00 0.00 0.00 0.00 0.00 0.00 0.00 0.00 0.00 0.00 0.00 0.00 0.00 0.01 0.01 0.02 0.07 0.06
0.00 0.00 0.00 0.01 0.01 0.00 0.00 0.00 0.00 0.00 0.00 0.00 0.00 0.00 0.00 0.00 0.00 0.00 0.00 0.00 0.00 0.00 0.00 0.00 0.00 0.00 0.00 0.00 0.00 0.00 0.00 0.00 0.00 0.00 0.00 0.00 0.00 0.00 0.01 0.02 0.02 0.02 0.05 0.07
0.00 0.00 0.00 0.00 0.00 0.00 0.00 0.00 0.00 0.00 0.00 0.00 0.00 0.00 0.00 0.00 0.00 0.00 0.00 0.00 0.00 0.00 0.00 0.00 0.00 0.00 0.00 0.00 0.00 0.00 0.00 0.00 0.00 0.00 0.00 0.00 0.01 0.00 0.00 0.01 0.02 0.02 0.03 0.07
0.00 0.00 0.00 0.01 0.02 0.01 0.00 0.00 0.00 0.00 0.00 0.00 0.00 0.00 0.00 0.00 0.00 0.00 0.00 0.00 0.00 0.00 0.00 0.00 0.00 0.00 0.00 0.00 0.00 0.00 0.00 0.00 0.00 0.00 0.00 0.01 0.02 0.01 0.01 0.02 0.03 0.02 0.02 0.04
0.01 0.00 0.00 0.03 0.01 0.00 0.00 0.00 0.00 0.00 0.00 0.00 0.00 0.00 0.00 0.00 0.00 0.00 0.00 0.00 0.00 0.00 0.00 0.00 0.00 0.00 0.00 0.00 0.00 0.00 0.00 0.00 0.00 0.00 0.00 0.01 0.04 0.03 0.01 0.02 0.04 0.04 0.05 0.07
MSLP
1010.56 1011.03 1009.75 1010.25 1010.16 1010.31 1010.40 1010.54 1010.20 1009.57 1009.01 1009.07 1008.62 1008.35 1008.08 1007.73 1007.88 1008.02 1008.87 1009.52 1010.12 1010.10 1010.01 1009.77 1009.77 1009.72 1009.78 1009.94 1010.37 1010.34 1010.57 1010.95 1011.19 1011.72 1012.29 1012.64 1012.86 1012.89 1012.81 1012.80 1012.67 1012.67 1012.70 1012.87
1010.66 1008.65 1009.06 1009.89 1010.11 1010.36 1010.42 1010.28 1010.11 1009.56 1008.96 1009.37 1008.80 1008.03 1007.88 1007.87 1007.86 1007.87 1008.62 1009.48 1009.60 1010.09 1010.50 1010.46 1010.43 1010.35 1010.67 1010.85 1011.06 1011.25 1011.35 1011.43 1011.71 1011.91 1012.35 1012.66 1012.88 1013.07 1013.04 1012.91 1012.74 1012.71 1012.86 1012.92
1008.41 1007.20 1008.78 1009.33 1009.69 1009.99 1010.00 1009.85 1009.90 1009.59 1009.33 1008.81 1008.81 1008.01 1007.94 1007.81 1007.79 1007.77 1008.12 1009.02 1009.71 1010.11 1010.69 1011.11 1011.21 1011.10 1011.18 1011.52 1011.74 1011.90 1012.17 1012.02 1012.05 1012.25 1012.48 1012.89 1013.14 1013.28 1013.27 1013.10 1012.90 1012.79 1012.77 1012.71
1008.51 1007.87 1007.99 1008.56 1008.52 1009.21 1009.38 1009.10 1009.45 1009.78 1010.19 1009.78 1008.95 1008.16 1007.66 1007.54 1007.93 1008.23 1008.42 1009.28 1009.81 1010.47 1010.87 1011.25 1011.72 1012.07 1011.89 1012.04 1012.16 1012.24 1012.38 1012.54 1012.53 1012.61 1012.88 1013.30 1013.54 1013.79 1013.40 1013.20 1012.80 1012.62 1012.49 1012.43
1005.66 1006.44 1007.35 1007.72 1005.91 1007.66 1007.26 1008.15 1008.76 1009.45 1009.75 1009.87 1009.31 1009.17 1006.64 1007.12 1008.14 1008.23 1008.79 1009.19 1009.74 1010.28 1010.74 1011.20 1011.63 1012.02 1012.26 1012.13 1012.19 1012.29 1012.44 1012.88 1012.95 1013.08 1013.25 1013.59 1013.71 1013.79 1013.63 1013.53 1013.27 1012.99 1012.67 1012.51
1005.34 1005.51 1006.01 1004.48 1006.11 1006.50 1007.35 1008.01 1008.64 1009.20 1009.85 1009.46 1008.84 1009.01 1004.59 1006.53 1006.89 1008.21 1008.86 1009.33 1009.77 1010.49 1010.96 1011.39 1011.69 1011.92 1012.28 1012.36 1012.43 1012.54 1012.61 1012.97 1013.03 1013.20 1013.47 1013.68 1013.78 1013.75 1013.73 1013.54 1013.28 1013.09 1012.83 1012.41
1005.18 1005.23 1004.84 1004.69 1005.35 1006.10 1007.03 1007.58 1008.81 1009.67 1010.02 1008.28 1007.87 1008.00 1005.20 1005.70 1006.14 1006.85 1008.23 1009.34 1009.89 1010.45 1011.19 1011.58 1011.97 1012.23 1012.44 1012.59 1012.50 1012.53 1012.70 1013.05 1013.10 1013.15 1013.24 1013.28 1013.19 1013.16 1013.19 1013.33 1013.20 1012.76 1012.16 1011.71
1003.95 1004.32 1003.40 1003.08 1003.01 1003.54 1005.00 1005.78 1006.44 1007.60 1008.85 1008.28 1007.89 1006.70 1005.80 1006.04 1005.71 1006.26 1007.75 1009.04 1009.94 1010.56 1011.14 1011.57 1011.99 1012.17 1012.45 1012.71 1012.78 1012.83 1013.06 1013.32 1013.40 1013.30 1013.18 1013.25 1013.35 1013.51 1013.49 1013.13 1012.82 1012.31 1011.73 1011.08
1002.42 1002.05 1001.43 1001.86 1002.22 1002.48 1003.94 1004.57 1004.45 1006.64 1008.40 1008.87 1007.78 1006.64 1006.42 1006.67 1006.78 1007.11 1007.94 1009.24 1009.94 1010.45 1011.10 1011.63 1012.12 1012.32 1012.56 1012.85 1013.06 1013.19 1013.33 1013.37 1013.31 1013.39 1013.48 1013.62 1013.53 1013.34 1013.10 1012.71 1012.30 1011.70 1011.00 1010.31
1000.91 1001.55 1000.86 1001.12 1002.07 1001.94 1002.17 1003.42 1005.30 1007.19 1008.42 1008.93 1007.50 1007.12 1006.66 1007.33 1007.49 1007.89 1008.56 1009.23 1010.03 1010.68 1011.39 1011.76 1012.11 1012.37 1012.73 1012.90 1013.08 1013.06 1013.13 1013.40 1013.46 1013.46 1013.43 1013.31 1013.06 1012.89 1012.66 1012.29 1011.82 1011.09 1010.24 1009.61
1000.48 1000.83 1001.10 1000.90 1000.22 1000.21 1002.29 1002.89 1004.09 1005.51 1007.09 1007.39 1007.42 1005.62 1004.66 1005.88 1007.02 1007.24 1008.23 1009.19 1009.92 1010.76 1011.35 1011.71 1012.04 1012.25 1012.66 1012.78 1012.91 1013.19 1013.48 1013.57 1013.46 1013.38 1013.13 1013.09 1012.85 1012.56 1012.10 1011.54 1010.80 1010.20 1009.45 1008.88
999.09 1000.65 1001.25 1000.50 1000.65 1000.34 1000.78 1000.75 1002.38 1003.90 1006.56 1006.64 1007.03 1003.53 1004.75 1005.58 1006.85 1007.92 1008.38 1009.19 1009.86 1010.47 1011.12 1011.55 1011.86 1012.14 1012.54 1012.89 1013.03 1013.32 1013.40 1013.36 1013.28 1013.09 1012.88 1012.69 1012.33 1011.90 1011.43 1010.77 1010.15 1009.50 1008.82 1008.11
998.70 999.56 1000.87 1001.41 1001.96 1001.33 1000.95 1001.24 1002.14 1003.36 1004.84 1004.87 1006.43 1003.89 1005.00 1005.68 1006.90 1007.61 1008.42 1009.33 1009.88 1010.54 1011.04 1011.45 1011.92 1012.24 1012.64 1013.11 1013.40 1013.34 1013.18 1013.05 1012.86 1012.64 1012.44 1012.03 1011.75 1011.37 1010.76 1010.02 1009.20 1008.37 1007.79 1007.13
998.06 998.62 999.17 998.91 997.95 1000.41 1000.92 1000.66 1001.12 1002.35 1003.67 1002.84 1003.07 1004.56 1005.61 1005.79 1006.39 1007.14 1008.00 1008.87 1009.63 1010.35 1010.76 1011.25 1011.86 1012.37 1012.72 1012.92 1012.94 1012.95 1012.80 1012.55 1012.38 1012.07 1011.72 1011.36 1011.05 1010.67 1009.97 1009.31 1008.57 1007.89 1007.28 1006.62
998.08 998.58 999.36 999.55 1000.01 999.77 999.63 999.97 1000.45 1000.89 1000.01 1001.76 1000.30 1003.07 1004.01 1005.05 1005.69 1006.53 1007.51 1008.49 1009.34 1010.21 1010.81 1011.20 1011.65 1011.84 1011.89 1012.03 1012.20 1012.05 1012.12 1012.16 1011.90 1011.49 1011.28 1010.96 1010.66 1010.35 1009.68 1008.96 1008.18 1007.58 1007.09 1006.36
998.72 998.92 999.93 999.89 1000.41 1000.61 1000.42 999.77 999.15 999.02 999.38 999.72 1000.51 1002.00 1003.19 1004.62 1005.67 1006.51 1007.31 1008.21 1008.91 1009.65 1010.24 1010.66 1010.83 1011.12 1011.23 1011.36 1011.52 1011.90 1012.03 1011.84 1011.65 1011.41 1011.13 1010.84 1010.43 1009.98 1009.45 1008.85 1008.15 1007.39 1006.50 1005.81
999.38 999.58 1000.11 999.88 1000.88 1001.45 1000.93 997.90 998.28 997.90 998.13 998.52 999.48 1000.85 1002.94 1004.57 1005.19 1006.14 1006.98 1007.63 1008.24 1008.88 1009.56 1010.01 1010.30 1010.55 1010.69 1011.25 1011.64 1011.79 1011.73 1011.61 1011.46 1011.19 1010.75 1010.55 1010.30 1009.89 1009.29 1008.66 1007.86 1007.00 1006.01 1005.24
999.33 1000.07 1001.21 1001.36 1001.33 1000.68 998.29 997.84 997.88 997.79 997.81 998.37 999.11 1000.34 1002.22 1003.90 1004.97 1005.36 1006.01 1006.92 1007.87 1008.76 1009.30 1009.74 1010.13 1010.42 1010.87 1011.18 1011.43 1011.67 1011.55 1011.34 1011.20 1011.00 1010.68 1010.47 1009.99 1009.64 1008.98 1008.20 1007.27 1006.24 1005.70 1005.08
999.64 1000.78 1001.21 1001.46 1001.24 999.93 998.75 998.33 997.58 997.58 996.75 997.84 999.03 1000.66 1002.23 1003.93 1005.12 1005.90 1006.16 1006.50 1007.37 1008.32 1008.88 1009.21 1009.65 1010.16 1010.72 1011.01 1011.36 1011.38 1011.06 1011.13 1011.28 1011.03 1010.67 1010.27 1010.03 1009.29 1008.45 1007.79 1006.77 1005.89 1005.58 1005.03
1000.32 1001.01 1001.18 1001.58 1001.01 1000.12 997.99 997.38 997.25 998.28 997.78 997.97 998.97 1000.17 1001.81 1003.70 1005.26 1005.42 1006.07 1006.75 1007.53 1008.13 1008.70 1009.23 1009.46 1010.07 1010.62 1010.86 1010.96 1011.10 1011.23 1011.16 1011.06 1010.96 1010.77 1010.27 1009.67 1008.76 1007.93 1007.28 1006.19 1005.90 1005.76 1005.21
1001.04 1001.34 1000.93 1001.26 1000.75 999.66 998.41 997.94 997.89 998.77 997.08 997.08 997.97 999.50 1001.28 1002.60 1003.50 1004.39 1005.77 1006.79 1007.23 1007.90 1008.69 1009.06 1009.51 1010.02 1010.34 1010.74 1011.22 1011.34 1011.19 1011.14 1011.19 1010.91 1010.43 1009.70 1008.93 1008.27 1007.69 1006.83 1006.27 1006.16 1005.92 1005.59
998.51 999.91 1000.42 1000.94 1000.77 999.07 997.37 998.18 997.47 997.35 997.45 997.78 998.57 999.57 1000.85 1002.03 1003.07 1004.13 1005.68 1006.59 1007.39 1007.85 1008.60 1009.02 1009.58 1009.99 1010.67 1011.05 1011.34 1011.18 1011.10 1010.97 1010.84 1010.52 1009.85 1008.94 1008.49 1008.12 1007.36 1006.73 1006.37 1006.44 1006.27 1006.05
997.96 997.02 997.82 998.28 997.70 997.37 997.15 996.72 996.82 996.93 997.83 998.46 998.78 999.83 1000.72 1002.16 1003.25 1004.64 1005.74 1006.47 1007.05 1007.70 1008.32 1008.96 1009.38 1010.23 1010.93 1011.06 1011.27 1010.89 1010.74 1010.75 1010.25 1010.14 1009.01 1008.57 1008.15 1007.71 1007.25 1006.81 1006.71 1006.74 1006.70 1006.40
996.89 996.89 997.32 997.78 997.47 997.14 997.24 997.31 997.40 997.66 997.97 998.81 999.35 1000.21 1001.22 1002.51 1003.72 1004.89 1005.67 1006.44 1007.07 1007.59 1007.95 1008.39 1009.33 1010.21 1010.90 1011.00 1010.83 1011.06 1010.71 1010.73 1009.99 1009.32 1008.61 1008.19 1008.14 1007.77 1007.14 1007.07 1007.08 1007.05 1006.88 1006.69
996.16 996.69 997.23 997.96 997.59 997.46 997.89 997.87 998.06 998.34 998.86 999.61 1000.26 1001.04 1001.97 1002.81 1003.95 1004.62 1005.56 1006.23 1006.81 1007.16 1007.56 1008.17 1009.08 1009.98 1010.42 1010.58 1010.84 1011.08 1010.62 1010.68 1009.58 1008.58 1008.55 1008.33 1007.75 1007.64 1007.74 1007.47 1007.40 1007.26 1007.01 1006.84
994.74 995.38 995.71 996.28 996.68 996.70 997.46 998.21 998.50 998.90 999.56 1000.05 1000.63 1001.73 1002.38 1002.88 1003.85 1004.70 1005.64 1006.16 1006.69 1007.20 1007.68 1008.18 1008.82 1009.63 1010.21 1010.57 1010.76 1010.75 1010.65 1010.01 1008.54 1008.61 1008.38 1008.27 1007.84 1008.15 1008.14 1007.83 1007.77 1007.61 1007.25 1007.07
Thickness
5646 5636 5649 5662 5678 5684 5679 5668 5671 5683 5699 5693 5693 5694 5705 5708 5711 5712 5699 5695 5689 5694 5703 5709 5709 5710 5711 5709 5706 5708 5706 5703 5701 5696 5690 5687 5683 5682 5680 5678 5677 5674 5671 5666
5632 5648 5671 5670 5672 5666 5664 5660 5659 5678 5693 5681 5683 5691 5695 5699 5700 5707 5695 5688 5691 5688 5690 5695 5696 5697 5696 5695 5694 5694 5693 5692 5688 5686 5682 5680 5675 5670 5668 5667 5665 5662 5658 5654
5640 5671 5667 5661 5658 5651 5652 5654 5661 5667 5674 5680 5677 5675 5684 5694 5697 5698 5696 5690 5685 5683 5682 5681 5682 5684 5684 5683 5682 5681 5679 5679 5678 5675 5673 5667 5662 5658 5655 5654 5653 5651 5646 5643
5627 5656 5650 5646 5649 5649 5637 5663 5662 5658 5646 5637 5668 5634 5671 5687 5683 5683 5684 5677 5673 5673 5673 5672 5669 5669 5672 5670 5671 5671 5669 5667 5666 5665 5660 5655 5648 5645 5643 5642 5642 5639 5636 5631
5646 5642 5638 5637 5670 5660 5661 5666 5658 5649 5641 5640 5647 5635 5666 5678 5667 5672 5669 5669 5666 5666 5665 5663 5662 5660 5659 5660 5660 5660 5658 5654 5652 5649 5645 5640 5636 5632 5630 5626 5623 5619 5616 5612
5642 5648 5644 5664 5659 5660 5660 5649 5642 5638 5629 5617 5639 5636 5684 5668 5670 5658 5658 5658 5658 5655 5654 5653 5652 5651 5648 5646 5646 5645 5645 5640 5636 5632 5627 5623 5618 5614 5609 5606 5602 5600 5598 5596
5618 5622 5637 5650 5639 5645 5635 5627 5601 5604 5595 5622 5651 5639 5671 5670 5676 5670 5656 5649 5648 5649 5644 5643 5642 5640 5638 5637 5636 5635 5631 5626 5623 5618 5614 5610 5608 5603 5599 5594 5591 5588 5588 5584
5607 5602 5631 5645 5648 5646 5639 5638 5619 5610 5600 5624 5638 5625 5648 5652 5667 5669 5656 5644 5640 5639 5636 5634 5632 5630 5628 5625 5622 5620 5616 5610 5605 5603 5601 5595 5590 5585 5580 5576 5573 5572 5569 5568
5606 5615 5647 5646 5654 5654 5636 5624 5662 5628 5611 5594 5609 5630 5642 5639 5643 5649 5643 5636 5632 5629 5625 5622 5620 5618 5614 5610 5607 5602 5599 5595 5592 5586 5581 5576 5571 5568 5564 5560 5556 5554 5552 5549
5623 5604 5641 5646 5640 5646 5647 5652 5615 5596 5588 5589 5601 5615 5623 5622 5629 5631 5629 5626 5623 5618 5612 5610 5609 5604 5600 5597 5593 5590 5587 5581 5576 5571 5566 5564 5561 5553 5546 5541 5538 5535 5534 5527
5616 5608 5607 5626 5626 5636 5627 5625 5623 5620 5591 5586 5579 5609 5635 5628 5622 5627 5621 5617 5612 5605 5602 5599 5596 5592 5588 5584 5580 5576 5570 5564 5560 5557 5553 5546 5540 5535 5532 5529 5526 5518 5514 5503
5620 5595 5583 5611 5624 5637 5636 5640 5634 5611 5554 5585 5590 5635 5620 5624 5613 5607 5610 5608 5599 5596 5590 5586 5582 5579 5575 5571 5566 5559 5554 5549 5546 5541 5536 5531 5527 5523 5520 5516 5509 5499 5487 5475
5608 5584 5576 5580 5590 5596 5604 5624 5625 5601 5588 5603 5592 5623 5609 5613 5602 5602 5599 5592 5588 5582 5578 5573 5569 5565 5559 5553 5546 5543 5539 5535 5531 5528 5525 5522 5515 5511 5507 5500 5492 5481 5465 5456
5604 5594 5595 5597 5625 5600 5598 5611 5623 5610 5594 5602 5606 5590 5593 5599 5601 5597 5593 5584 5576 5571 5568 5562 5556 5550 5544 5541 5536 5527 5526 5524 5521 5519 5516 5513 5506 5499 5492 5482 5469 5456 5445 5437
5589 5579 5590 5597 5590 5602 5614 5612 5609 5601 5619 5596 5635 5600 5596 5594 5597 5593 5586 5574 5568 5559 5556 5552 5546 5543 5539 5533 5527 5523 5519 5514 5510 5509 5505 5499 5491 5480 5470 5459 5447 5435 5428 5425
5566 5569 5578 5579 5572 5578 5583 5599 5612 5612 5614 5613 5612 5595 5595 5588 5584 5574 5570 5566 5562 5556 5549 5544 5541 5535 5530 5525 5519 5511 5505 5500 5497 5494 5488 5480 5472 5458 5448 5436 5426 5422 5420 5418
5557 5563 5560 5574 5560 5553 5557 5596 5606 5614 5616 5614 5600 5602 5583 5573 5574 5567 5561 5560 5555 5546 5540 5534 5530 5524 5519 5509 5502 5496 5491 5487 5483 5479 5472 5460 5448 5437 5428 5421 5416 5415 5415 5413
5542 5560 5537 5529 5541 5554 5589 5599 5603 5603 5608 5606 5598 5592 5573 5568 5564 5566 5560 5551 5542 5533 5527 5520 5513 5508 5502 5494 5487 5479 5478 5474 5468 5461 5452 5439 5431 5422 5416 5412 5411 5413 5409 5409
5536 5530 5516 5522 5536 5559 5571 5572 5590 5591 5606 5598 5589 5575 5561 5557 5545 5539 5541 5542 5531 5519 5513 5508 5503 5497 5486 5480 5474 5469 5466 5458 5448 5440 5429 5421 5414 5411 5412 5409 5410 5407 5403 5406
5515 5515 5527 5505 5526 5543 5573 5574 5581 5578 5576 5583 5581 5573 5554 5542 5528 5526 5527 5522 5514 5507 5500 5494 5490 5483 5476 5469 5463 5457 5446 5440 5430 5420 5411 5407 5405 5407 5409 5406 5409 5401 5398 5401
5496 5496 5517 5498 5511 5521 5538 5553 5563 5548 5582 5590 5585 5568 5546 5539 5540 5529 5515 5507 5503 5495 5487 5485 5479 5473 5465 5456 5445 5437 5430 5421 5410 5404 5402 5402 5404 5404 5401 5402 5400 5395 5394 5394
5518 5505 5503 5490 5493 5534 5547 5548 5554 5560 5558 5558 5560 5549 5538 5525 5517 5516 5502 5493 5487 5486 5478 5471 5464 5457 5446 5437 5428 5423 5414 5406 5400 5396 5397 5401 5399 5397 5395 5396 5393 5389 5388 5385
5509 5520 5511 5527 5536 5535 5540 5550 5547 5549 5542 5540 5538 5531 5523 5510 5505 5496 5486 5482 5479 5473 5465 5457 5449 5438 5427 5422 5415 5410 5403 5397 5394 5392 5398 5396 5393 5391 5389 5389 5387 5383 5381 5380
5492 5507 5495 5509 5515 5523 5526 5530 5531 5532 5529 5521 5520 5514 5507 5496 5487 5480 5474 5470 5464 5459 5456 5451 5436 5425 5412 5404 5405 5397 5394 5389 5391 5393 5396 5392 5387 5385 5385 5384 5380 5378 5377 5376
5487 5495 5492 5484 5501 5504 5508 5515 5513 5510 5508 5503 5499 5496 5489 5483 5474 5471 5466 5461 5456 5453 5448 5439 5427 5414 5406 5397 5389 5387 5387 5384 5390 5397 5393 5386 5385 5383 5379 5378 5374 5374 5374 5373
5494 5490 5496 5494 5496 5497 5498 5492 5493 5494 5490 5489 5486 5477 5473 5471 5466 5462 5455 5450 5444 5438 5432 5422 5413 5403 5393 5385 5383 5383 5383 5385 5397 5394 5389 5384 5382 5376 5372 5372 5370 5368 5370 5370